CW7710 Weather Reports


Display with metric or nautical units.
time (UTC)temp
F
wind
direction
speed
MPH
gust
MPH
rain 1hr
in
rain 24hr
in
rain mn
in
humidity
%
barometer
mb
20260505022332 51 68 9.0 0.0 0.00 0.00 0.00 50 1015.1
20260505021356 51 65 11.0 0.0 0.00 0.00 0.00 49 1015.2
20260505020339 51 53 10.0 0.0 0.00 0.00 0.00 49 1015.1
20260505015343 52 57 11.0 0.0 0.00 0.00 0.00 49 1014.5
20260505014331 52 42 15.0 0.0 0.00 0.00 0.00 48 1014.5
20260505013335 52 61 15.0 0.0 0.00 0.00 0.00 48 1014.4
20260505012339 52 61 16.0 0.0 0.00 0.00 0.00 47 1014.9
20260505011343 53 67 15.0 0.0 0.00 0.00 0.00 45 1014.9
20260505010331 54 65 14.0 0.0 0.00 0.00 0.00 44 1014.9
20260505005335 55 352 13.0 0.0 0.00 0.00 0.00 43 1014.4
20260505004340 55 3 15.0 0.0 0.00 0.00 0.00 42 1014.7
20260505003344 55 346 13.0 0.0 0.00 0.00 0.00 41 1014.6
20260505002332 55 5 15.0 0.0 0.00 0.00 0.00 41 1014.6
20260505001336 56 359 15.0 0.0 0.00 0.00 0.00 41 1014.3
20260505000340 56 24 16.0 0.0 0.00 0.00 0.00 41 1014.1
20260504235343 56 28 16.0 0.0 0.00 0.00 0.00 41 1014.6
20260504234332 56 356 18.0 0.0 0.00 0.00 0.00 40 1014.6
20260504233336 56 16 17.0 0.0 0.00 0.00 0.00 39 1014.5
20260504232340 57 17 16.0 0.0 0.00 0.00 0.00 39 1014.3
20260504231344 57 9 17.0 0.0 0.00 0.00 0.00 39 1014.2
20260504230331 56 352 16.0 0.0 0.00 0.00 0.00 39 1014.2
20260504225355 57 339 16.0 0.0 0.00 0.00 0.00 39 1013.9
20260504224357 57 354 13.0 0.0 0.00 0.00 0.00 40 1013.8
20260504223340 57 4 16.0 0.0 0.00 0.00 0.00 40 1013.7
20260504222324 57 348 15.0 0.0 0.00 0.00 0.00 40 1013.7
20260504221335 57 5 13.0 0.0 0.00 0.00 0.00 40 1013.7
20260504220342 57 352 16.0 0.0 0.00 0.00 0.00 40 1014.7
20260504215326 58 7 14.0 0.0 0.00 0.00 0.00 39 1013.3
20260504214330 60 16 14.0 0.0 0.00 0.00 0.00 38 1013.6
20260504213337 59 4 11.0 0.0 0.00 0.00 0.00 40 1013.6
20260504212321 59 1 14.0 0.0 0.00 0.00 0.00 40 1013.8
20260504211329 59 30 16.0 0.0 0.00 0.00 0.00 39 1013.8
20260504210337 59 5 15.0 0.0 0.00 0.00 0.00 41 1013.8
20260504205405 58 39 17.0 0.0 0.00 0.00 0.00 40 1014.5
20260504204329 58 9 16.0 0.0 0.00 0.00 0.00 41 1014.5
20260504203332 57 354 18.0 0.0 0.00 0.00 0.00 43 1014.5
20260504202336 56 8 18.0 0.0 0.00 0.00 0.00 43 1013.9
20260504201339 56 359 19.0 0.0 0.00 0.00 0.00 42 1014.4
20260504200327 58 3 17.0 0.0 0.00 0.00 0.00 42 1014.4
20260504195330 57 14 17.0 0.0 0.00 0.00 0.00 42 1014.6
20260504194334 58 28 14.0 0.0 0.00 0.00 0.00 41 1014.5
20260504193342 58 29 12.0 0.0 0.00 0.00 0.00 41 1014.6
20260504192330 58 34 13.0 0.0 0.00 0.00 0.00 42 1014.6
20260504191334 59 35 10.0 0.0 0.00 0.00 0.00 40 1014.3
20260504190341 59 349 8.0 0.0 0.00 0.00 0.00 42 1014.2
20260504185345 58 21 9.0 0.0 0.00 0.00 0.00 42 1014.0
20260504184333 57 346 9.0 0.0 0.00 0.00 0.00 42 1014.0
20260504183338 58 32 8.0 0.0 0.00 0.00 0.00 43 1014.1
20260504182345 57 42 9.0 0.0 0.00 0.00 0.00 43 1014.1
20260504181328 57 345 6.0 0.0 0.00 0.00 0.00 44 1014.1
20260504180336 57 340 7.0 0.0 0.00 0.00 0.00 43 1013.4
20260504175344 57 35 9.0 0.0 0.00 0.00 0.00 42 1014.4
20260504174328 57 357 8.0 0.0 0.00 0.00 0.00 43 1014.4
20260504173333 57 332 10.0 0.0 0.00 0.00 0.00 44 1014.5
20260504172341 57 30 8.0 0.0 0.00 0.00 0.00 44 1014.5
20260504171325 56 23 6.0 0.0 0.00 0.00 0.00 45 1014.7
20260504170328 56 332 9.0 0.0 0.00 0.00 0.00 46 1014.8
20260504160340 54 12 12.0 0.0 0.00 0.00 0.00 47 1015.4
20260504150328 53 107 4.0 0.0 0.00 0.00 0.00 47 1015.6
20260504140340 51 86 10.0 0.0 0.00 0.00 0.00 50 1013.2
20260504130334 46 311 12.0 0.0 0.00 0.00 0.00 58 1015.1
20260504110348 50 18 20.0 0.0 0.00 0.00 0.00 48 1013.1
20260504100338 44 34 5.0 0.0 0.00 0.00 0.00 69 1012.0
20260504081337 44 138 6.0 0.0 0.00 0.00 0.00 70 1011.2
20260504080341 41 176 5.0 0.0 0.00 0.00 0.00 69 1010.9
20260504070327 45 63 2.0 0.0 0.00 0.00 0.00 61 1011.5
20260504050337 53 269 4.0 0.0 0.00 0.00 0.00 49 1011.4
20260504045400 53 257 4.0 0.0 0.00 0.00 0.00 49 1010.5
20260504044326 54 254 4.0 0.0 0.00 0.00 0.00 47 1010.4
20260504043331 55 229 5.0 0.0 0.00 0.00 0.00 44 1010.9
20260504042335 56 266 6.0 0.0 0.00 0.00 0.00 45 1010.8
20260504041339 56 264 6.0 0.0 0.00 0.00 0.00 44 1010.8
20260504040327 53 275 3.0 0.0 0.00 0.00 0.00 48 1010.9
20260504035351 54 196 3.0 0.0 0.00 0.00 0.00 47 1010.4
20260504034335 54 176 5.0 0.0 0.00 0.00 0.00 48 1010.2
20260504033339 54 181 6.0 0.0 0.00 0.00 0.00 48 1010.1
20260504032326 55 181 3.0 0.0 0.00 0.00 0.00 46 1010.0
20260504031353 56 200 2.0 0.0 0.00 0.00 0.00 45 1009.6
20260504030336 56 200 3.0 0.0 0.00 0.00 0.00 44 1010.4
20260504025339 61 194 1.0 0.0 0.00 0.00 0.00 38 1009.7
20260504024328 65 37 2.0 0.0 0.00 0.00 0.00 33 1009.5
20260504023332 67 30 4.0 0.0 0.00 0.00 0.00 32 1009.5